[Date Prev][Date Next][Thread Prev][Thread Next] - [Date Index][Thread Index][Author Index]
2 Line ISS Keps 12-4
- Subject: [sarex] 2 Line ISS Keps 12-4
- From: "Dave Larsen PhD" <doc@xxxxxxxxxxx>
- Date: Sat, 3 Dec 2005 19:41:07 -0800
ISS
1 25544U 98067A 05338.03287037 .00015268 00000-0 11505-3 0 8748
2 25544 051.6428 110.4239 0009203 001.3536 148.4835 15.72697337402414
----
Via the sarex mailing list at AMSAT.ORG courtesy of AMSAT-NA.
To unsubscribe, send "unsubscribe sarex" to Majordomo@amsat.org
AMSAT Home